Location: Unspecified
(0.0000°N, 0.0000°E)
Time: 08:48:39
(UTC+00:00)

Explorer 11/Cluster Stage 4 - Pass Details

Date: 22 July 2020
Orbit: 467 x 1259 km, 28.8° (Epoch: 03 August)

Event Time Altitude Azimuth Distance (km) Brightness Sun altitude
Rises 03:56:51 0° 256° (WSW) 3,068 - -30.2°
Reaches altitude 10° 03:59:44 10° 267° (W) 2,011 - -29.5°
Maximum altitude 04:03:42 29° 327° (NNW) 1,047 - -28.6°
Exits shadow 04:05:31 20° 10° (N) 1,252 7.9 -28.2°
Drops below altitude 10° 04:07:07 10° 29° (NNE) 1,718 8.9 -27.8°
Sets 04:09:23 0° 41° (NE) 2,538 10.2 -27.3°
